Retour au catalogue

OV1-21 R/B

ActifPO
NORAD 5397·ROCKET BODY·🇺🇸 United States

Lancé Aug 7, 1971 depuis Vandenberg Space Force Base

Loading…

Prochains Passages (prochaines 24 heures)

TLE

FraisSource: Space-Track

Époque: Sep 14, 2026, 09:40 UTC

1 05397U 71067B   26257.40340775  .00000092  00000-0  35704-4 0  9991
2 05397  87.6252  49.3332 0079369 255.1125 104.1264 14.18247804847090

Suivez OV1-21 R/B en temps réel avec AllMySat

Download on the App Store